Rockwood, MI

5:16 PM EST on December 10, 2016 (GMT -0500)
Grosse Ile Municipal

Weather History for KONZ - August, 2012

Change the Weather History Date:

Thursday, August 9, 2012

  Actual Average (KDTW) Record (KDTW)
Temperature  
Mean Temperature 70 °F -  
Max Temperature 73 °F 83 °F 96 °F (1891)
Min Temperature 66 °F 62 °F 46 °F (1884)
Cooling Degree Days 4    
Growing Degree Days 20 (Base 50)    
Moisture  
Dew Point 64 °F    
Average Humidity 86    
Maximum Humidity 94    
Minimum Humidity 69    
Precipitation  
Precipitation 0.52 in - - ()
Sea Level Pressure  
Sea Level Pressure 29.90 in    
Wind  
Wind Speed 7 mph (NNE)    
Max Wind Speed 12 mph    
Max Gust Speed 16 mph    
Visibility 9 miles    
Events Rain    
Averages and records for this station are not official NWS values.
T = Trace of Precipitation, MM = Missing Value Source: NWS Daily Summary

Daily Weather History Graph

Daily Weather History Graph

Search for Another Location

Airport or City:

Trip Planner

Search our weather history database for the weather conditions in past years. The results will help you decide how hot, cold, wet, or windy it might be!

Date:

Astronomy

Aug. 09, 2012 Rise Set
Actual Time 6:34 AM EDT 8:40 PM EDT
Civil Twilight 6:03 AM EDT 9:11 PM EDT
Nautical Twilight 5:26 AM EDT 9:49 PM EDT
Astronomical Twilight 4:44 AM EDT 10:30 PM EDT
Moon No Moon Rise 2:24 PM EDT (8/9)
Length of Visible Light 15h 07m
Length of Day
14h 06m
Waning Gibbous, 51% of the Moon is Illuminated
Aug 9
Waning Gibbous
Aug 9
Last Quarter
Aug 17
New
Aug 24
First Quarter
Aug 31
Full

Hourly Weather History & Observations

Time (EDT) Temp. Dew Point Humidity Pressure Visibility Wind Dir Wind Speed Gust Speed Precip Events Conditions
12:14 AM 73.4 °F 62.6 °F 69% 29.97 in 10.0 mi NE 6.9 mph - N/A   Clear
12:34 AM 73.4 °F 64.4 °F 73% 29.97 in 10.0 mi ENE 6.9 mph - N/A   Clear
12:54 AM 73.4 °F 64.4 °F 73% 29.96 in 10.0 mi NE 8.1 mph - N/A   Clear
1:15 AM 73.4 °F 64.4 °F 73% 29.95 in 10.0 mi NE 6.9 mph - N/A   Clear
1:34 AM 71.6 °F 64.4 °F 78% 29.94 in 10.0 mi East 4.6 mph - N/A   Clear
1:54 AM 71.6 °F 64.4 °F 78% 29.94 in 10.0 mi Calm Calm - N/A   Clear
2:15 AM 71.6 °F 64.4 °F 78% 29.93 in 10.0 mi ENE 5.8 mph - N/A   Clear
2:34 AM 71.6 °F 64.4 °F 78% 29.93 in 10.0 mi East 4.6 mph - N/A   Scattered Clouds
2:54 AM 71.6 °F 64.4 °F 78% 29.94 in 10.0 mi Calm Calm - N/A   Mostly Cloudy
3:14 AM 71.6 °F 62.6 °F 73% 29.94 in 10.0 mi East 3.5 mph - N/A   Overcast
3:34 AM 71.6 °F 62.6 °F 73% 29.93 in 10.0 mi ENE 4.6 mph - N/A Rain Light Rain
3:54 AM 71.6 °F 62.6 °F 73% 29.93 in 10.0 mi ENE 5.8 mph - N/A Rain Light Rain
4:14 AM 71.6 °F 62.6 °F 73% 29.95 in 10.0 mi Calm Calm - N/A   Overcast
4:34 AM 71.6 °F 66.2 °F 83% 29.93 in 10.0 mi North 5.8 mph - N/A Rain Light Rain
4:54 AM 69.8 °F 64.4 °F 83% 29.92 in 10.0 mi NE 5.8 mph - N/A Rain Light Rain
5:14 AM 69.8 °F 64.4 °F 83% 29.92 in 10.0 mi NNE 5.8 mph - N/A   Scattered Clouds
5:34 AM 69.8 °F 66.2 °F 88% 29.91 in 10.0 mi NNE 9.2 mph - N/A   Mostly Cloudy
5:54 AM 69.8 °F 66.2 °F 88% 29.90 in 10.0 mi NNE 10.4 mph - N/A   Mostly Cloudy
6:14 AM 71.6 °F 66.2 °F 83% 29.90 in 10.0 mi NNE 9.2 mph - N/A   Overcast
6:34 AM 71.6 °F 66.2 °F 83% 29.92 in 10.0 mi North 5.8 mph - N/A   Overcast
6:54 AM 71.6 °F 66.2 °F 83% 29.92 in 10.0 mi NNE 9.2 mph - 0.02 in Rain Light Rain
7:14 AM 69.8 °F 66.2 °F 88% 29.92 in 10.0 mi NNE 8.1 mph - N/A   Scattered Clouds
7:34 AM 71.6 °F 66.2 °F 83% 29.93 in 10.0 mi North 9.2 mph - N/A   Mostly Cloudy
7:54 AM 71.6 °F 66.2 °F 83% 29.93 in 7.0 mi NE 11.5 mph - N/A Rain Light Rain
8:14 AM 69.8 °F 66.2 °F 88% 29.95 in 1.0 mi North 5.8 mph - 0.23 in Rain Heavy Rain
8:35 AM 69.8 °F 66.2 °F 88% 29.94 in 10.0 mi North 8.1 mph - 0.25 in Rain Light Rain
8:54 AM 69.8 °F 66.2 °F 88% 29.94 in 10.0 mi NNE 9.2 mph - 0.25 in Rain Light Rain
9:14 AM 69.8 °F 64.4 °F 83% 29.94 in 10.0 mi NE 6.9 mph - N/A   Overcast
9:34 AM 69.8 °F 64.4 °F 83% 29.95 in 7.0 mi North 3.5 mph - 0.01 in Rain Rain
9:54 AM 69.8 °F 64.4 °F 83% 29.94 in 10.0 mi North 6.9 mph - 0.03 in Rain Light Rain
10:14 AM 68.0 °F 64.4 °F 88% 29.93 in 10.0 mi NNE 9.2 mph - N/A   Light Drizzle
10:34 AM 68.0 °F 64.4 °F 88% 29.93 in 7.0 mi NNE 9.2 mph - 0.03 in Rain Rain
10:54 AM 66.2 °F 62.6 °F 88% 29.93 in 5.0 mi North 9.2 mph - 0.15 in Rain Heavy Rain
11:14 AM 66.2 °F 62.6 °F 88% 29.93 in 10.0 mi NNE 9.2 mph - 0.04 in Rain Light Rain
11:34 AM 66.2 °F 62.6 °F 88% 29.93 in 10.0 mi NNE 6.9 mph - 0.04 in Rain Light Rain
11:54 AM 66.2 °F 64.4 °F 94% 29.91 in 10.0 mi NE 9.2 mph - 0.04 in Rain Light Rain
12:14 PM 68.0 °F 64.4 °F 88% 29.92 in 10.0 mi NE 9.2 mph - N/A   Overcast
12:34 PM 66.2 °F 64.4 °F 94% 29.91 in 10.0 mi NE 9.2 mph - N/A   Overcast
12:54 PM 66.2 °F 64.4 °F 94% 29.91 in 10.0 mi NE 9.2 mph - N/A   Overcast
1:14 PM 66.2 °F 64.4 °F 94% 29.90 in 10.0 mi NE 11.5 mph - N/A   Overcast
1:34 PM 68.0 °F 64.4 °F 88% 29.90 in 10.0 mi NE 9.2 mph - N/A   Overcast
1:54 PM 68.0 °F 64.4 °F 88% 29.90 in 10.0 mi NNE 8.1 mph - N/A   Overcast
2:15 PM 68.0 °F 64.4 °F 88% 29.90 in 10.0 mi NNE 8.1 mph - N/A   Overcast
2:34 PM 69.8 °F 64.4 °F 83% 29.90 in 10.0 mi NE 6.9 mph - N/A   Overcast
2:54 PM 68.0 °F 64.4 °F 88% 29.90 in 10.0 mi NE 8.1 mph - N/A   Overcast
3:14 PM 69.8 °F 64.4 °F 83% 29.89 in 10.0 mi North 5.8 mph - N/A   Overcast
3:34 PM 69.8 °F 64.4 °F 83% 29.88 in 10.0 mi NNE 6.9 mph - N/A   Light Drizzle
3:54 PM 68.0 °F 64.4 °F 88% 29.87 in 10.0 mi NNE 9.2 mph - N/A Rain Light Rain
4:14 PM 68.0 °F 64.4 °F 88% 29.87 in 10.0 mi NNE 6.9 mph - N/A Rain Rain
4:34 PM 68.0 °F 64.4 °F 88% 29.86 in 10.0 mi NNE 8.1 mph - N/A Rain Light Rain
4:54 PM 68.0 °F 64.4 °F 88% 29.85 in 10.0 mi NE 9.2 mph - 0.01 in Rain Light Rain
5:14 PM 68.0 °F 64.4 °F 88% 29.85 in 10.0 mi NNE 9.2 mph - N/A Rain Light Rain
5:34 PM 66.2 °F 64.4 °F 94% 29.85 in 10.0 mi North 8.1 mph - N/A Rain Light Rain
5:54 PM 66.2 °F 64.4 °F 94% 29.85 in 10.0 mi NNE 10.4 mph - N/A Rain Light Rain
6:14 PM 68.0 °F 64.4 °F 88% 29.85 in 10.0 mi NNE 8.1 mph - N/A   Overcast
6:34 PM 68.0 °F 64.4 °F 88% 29.85 in 10.0 mi NE 9.2 mph - N/A Rain Light Rain
6:55 PM 68.0 °F 64.4 °F 88% 29.84 in 10.0 mi NE 9.2 mph - N/A   Overcast
7:14 PM 68.0 °F 64.4 °F 88% 29.84 in 10.0 mi NNE 8.1 mph - N/A   Overcast
7:34 PM 66.2 °F 62.6 °F 88% 29.84 in 7.0 mi NE 10.4 mph - 0.01 in Rain Rain
7:54 PM 66.2 °F 62.6 °F 88% 29.84 in 10.0 mi NNE 9.2 mph - 0.01 in   Overcast
8:14 PM 66.2 °F 64.4 °F 94% 29.84 in 10.0 mi North 6.9 mph - N/A Rain Light Rain
8:34 PM 66.2 °F 64.4 °F 94% 29.84 in 10.0 mi North 9.2 mph - N/A Rain Light Rain
8:54 PM 66.2 °F 64.4 °F 94% 29.83 in 10.0 mi NNE 10.4 mph - N/A   Overcast
9:14 PM 66.2 °F 62.6 °F 88% 29.83 in 10.0 mi NNE 9.2 mph - N/A   Overcast
9:34 PM 66.2 °F 64.4 °F 94% 29.83 in 10.0 mi North 8.1 mph - N/A   Overcast
9:54 PM 66.2 °F 64.4 °F 94% 29.83 in 10.0 mi NNE 10.4 mph 16.1 mph N/A   Overcast
10:14 PM 66.2 °F 64.4 °F 94% 29.83 in 7.0 mi NNE 8.1 mph - N/A   Overcast
10:34 PM 66.2 °F 62.6 °F 88% 29.82 in 5.0 mi North 8.1 mph - N/A   Overcast
10:54 PM 66.2 °F 62.6 °F 88% 29.82 in 7.0 mi North 8.1 mph - N/A   Overcast
11:14 PM 66.2 °F 62.6 °F 88% 29.81 in 7.0 mi North 9.2 mph - N/A   Overcast
11:35 PM 66.2 °F 64.4 °F 94% 29.79 in 7.0 mi NNE 9.2 mph - N/A Rain Light Rain
11:54 PM 66.2 °F 64.4 °F 94% 29.80 in 10.0 mi NE 8.1 mph - 0.01 in Rain Light Rain